Regional Weather Roundup
Issued by NWS

Home | Current Version | Previous Version | Graphics & Text | Print | Product List | Glossary On
Versions: 1 2 3 4 5 6 7 8 9 10 11 12 13 14 15 16 17 18 19 20 21 22 23 24 25 26 27 28 29 30 31 32 33 34 35 36 37 38 39 40 41 42 43 44 45 46 47 48 49 50
000
ASUS45 KTFX 110210
RWRMT
MONTANA REGIONAL WEATHER ROUNDUP
NATIONAL WEATHER SERVICE GREAT FALLS MT
700 PM MST SAT DEC 10 2016

NOTE: "FAIR" INDICATES FEW OR NO CLOUDS BELOW 12000 FEET WITH NO
SIGNIFICANT WEATHER AND/OR OBSTRUCTIONS TO VISIBILITY.

MTZ001>007-043-110300-
WEST OF THE DIVIDE

CITY           SKY/WX    TMP DP  RH WIND       PRES   REMARKS
KALISPELL      CLOUDY    15  11  83 CALM      29.88S
MISSOULA       CLOUDY    20  18  92 S5        29.87S
BUTTE          CLEAR     12   5  73 S3        29.77R
MULLAN PASS    FOG       17  15  92 VRB5      29.74R VSB 3/4
ANACONDA         N/A     19  10  68 SE3       29.79R
DEER LODGE       N/A     25  16  68 CALM      29.81R
EUREKA           N/A      0  -4  85 CALM      29.93R
HAMILTON         N/A     21  16  79 N6        29.83R WCI  14
LIBBY            N/A      9   5  85 CALM      29.90S
PLAINS           N/A     20  13  74 CALM      29.92
RONAN            N/A     16  10  77 CALM      29.91R
$$

MTZ008-052>055-110300-
SOUTHWEST MONTANA

CITY           SKY/WX    TMP DP  RH WIND       PRES   REMARKS
BOZEMAN        CLOUDY    14  11  87 SW3       29.77R FOG
DILLON         CLEAR     26  12  55 SW17G28   29.74S WCI  13
W YELLOWSTONE  CLOUDY    27  18  69 SW5       29.73S
ENNIS          MOCLDY    23  18  80 SW5       29.79R
THREE FORKS      N/A      7 -25  21 CALM      29.79R
TWIN BRIDGES     N/A     19   7  60 E6        29.79R WCI  11
$$

MTZ009-010-012-014-046-048-049-054-110300-
EAST SLOPES AND CENTRAL MONTANA

CITY           SKY/WX    TMP DP  RH WIND       PRES   REMARKS
CUT BANK       PTCLDY   -10 -13  86 N10       29.75F WCI -29
GREAT FALLS    CLOUDY    -1  -5  82 CALM      29.75S
MALMSTROM AFB  CLOUDY    -3  -4  93 SW3       29.77S
HELENA         CLEAR     25  14  63 W15       29.75S WCI  13
AUGUSTA          N/A     24  12  60 NW8G22    29.70R WCI  15
BOWMANS CRNR     N/A     19   9  66 NW6       29.70R WCI  11
CHOTEAU          N/A     -4  -8  84 MISG      29.75F
CONRAD           N/A    -11 -15  82 NE1       29.79F
FAIRFIELD        N/A     -2  -6  85 N8        29.73S WCI -17
POWER            N/A     -4  -7  84 N6        29.74S WCI -16
RAYNESFORD       N/A      0  -1  95 E3        29.73F
ULM              N/A     -4  -6  92 N9G24     29.77R WCI -20
$$

MTZ011-013-016-021-045-047-050-051-110300-
NORTH CENTRAL MONTANA

CITY           SKY/WX    TMP DP  RH WIND       PRES   REMARKS
HAVRE          CLOUDY     2  -1  88 W3        29.86R
LEWISTOWN      CLOUDY     1  -3  83 SW3       29.71S
N BAR RANCH      N/A     21  16  79 NW13G18   29.67R WCI   9
CHINOOK          N/A      1   0  92 W3        29.88R
DENTON         FLURRIES   4   2  90 W18       29.72F WCI -16
FORT BENTON      N/A      1  -2  85 CALM      29.86R
GEYSER           N/A      2  -1  88 E5        29.70S
GRASS RANGE      N/A      1  -1  89 SE10      29.68S WCI -15
JUDITH GAP       N/A      5   2  86 N5G14     29.68R
ROY              N/A      5   2  86 MISG      29.71F
STANFORD         N/A      8   8  98 NW12      29.69R WCI  -7
$$

MTZ017>020-022>027-061-062-110300-
NORTHEAST MONTANA

CITY           SKY/WX    TMP DP  RH WIND       PRES   REMARKS
GLASGOW        CLOUDY     2  -2  83 E15       29.84F WCI -17
JORDAN           N/A      9   4  80 CALM      29.79
SIDNEY         LGT SNOW   1  -3  83 E12       29.90F FOG     WCI -16
WOLF POINT     SNOW       4  -1  80 NE13      29.90F VSB 1/2 WCI -13
PLENTYWOOD       N/A      0  -4  85 E18       29.90S VSB 3/4 WCI -22
POPLAR           N/A      1  -2  85 E8        29.93R VSB 1/2 WCI -12
SCOBEY           N/A      0 -11  60 E8        29.88  VSB 0   WCI -14
$$

MTZ028>42-056>058-110300-
SOUTHCENTRAL AND SOUTHEAST MONTANA

CITY           SKY/WX    TMP DP  RH WIND       PRES   REMARKS
BAKER          LGT SNOW   2  -3  80 SE23      29.76S VSB 3/4 WCI -21
BILLINGS       CLOUDY    21  18  88 SW13      29.71R WCI   9
LIVINGSTON     CLOUDY    27  20  75 NW5       29.70F
MILES CITY     CLOUDY    11   6  81 S5        29.78R
BIG TIMBER     CLEAR     28  19  69 W24       29.70S WCI  14
EKALAKA          N/A      5  -3  69 E10       29.71  WCI -10
FORSYTH          N/A     12   9  85 CALM      29.79R
HARLOWTON        N/A     26  15  62 W26G33    29.67R WCI  10
LAUREL           N/A     19  11  71 W3        29.72
ROUNDUP          N/A     10   3  73 NE3       29.67S
$$

REGIONAL REPORTS...DAKOTAS

CITY           SKY/WX    TMP DP  RH WIND       PRES   REMARKS
WILLISTON      LGT SNOW   3  -2  79 E8        29.94F WCI -10
MINOT          CLOUDY    -4 -10  75 E14       30.05F WCI -24
DICKINSON      LGT SNOW  -4  -8  83 E14       29.83F VSB 1   WCI -24
BEACH          LGT SNOW   0  -2  92 SE21      29.82S WCI -23
CROSBY         LGT SNOW  -6  -9  84 E21       30.01S WCI -30
TIOGA          LGT SNOW  -2  -4  92 E16       29.95F WCI -23
WATFORD CITY   LGT SNOW   0  -6  78 SE15      29.91F WCI -20
BISMARCK       FLURRIES  -1  -5  82 E13       30.02F WCI -19
GRAND FORKS    CLOUDY    -5 -10  79 NE5       30.26F
FARGO          CLOUDY     3  -5  69 E8        30.20F WCI -10
BUFFALO SD       N/A      3  -2  79 SE9       29.70F WCI -12
RAPID CITY     CLOUDY     5   2  87 E5        29.74R
$$

REGIONAL REPORTS...WYOMING/IDAHO/WASHINGTON

CITY           SKY/WX    TMP DP  RH WIND       PRES   REMARKS
GILLETTE       LGT SNOW  16  14  92 NW7       29.70R VSB 3/4 WCI   6
SHERIDAN       CLOUDY    22  19  89 VRB3      29.72F
BUFFALO WY     LGT SNOW  31  27  85 N26G40    29.67S FOG     WCI  17
CODY           FLURRIES  26  24  92 NE5       29.71R
YELLOWSTONE LA   N/A     22  20  92 W9        29.72R WCI  12
IDAHO FALLS    CLOUDY    34  32  92 SW18      29.78R WCI  23
SALMON         CLOUDY    18  16  93 CALM      29.85R
BOISE          FOG       31  30  96 SW5       29.90S VSB 1/4
SPOKANE        CLOUDY    21  18  88 E5        29.90F FOG
$$

REGIONAL REPORTS...ALBERTA

CITY           SKY/WX    TMP DP  RH WIND       PRES   REMARKS
EDMONTON       CLOUDY    -6 -13  71 NW5       29.98S
CALGARY        CRYSTALS  -9 -13  84 N7        29.81R WCI -24
LETHBRIDGE     MOCLDY    -9 -15  77 S7        29.85F WCI -24
MEDICINE HAT   LGT SNOW   3   0  85 NW7       29.90S FOG     WCI  -9
WATERTON GATE    N/A    -13 -18  77 NE5         N/A
CARDSTON         N/A    -13 -18  77 S2          N/A
MILK RIVER       N/A     -8 -11  84 NW8         N/A  WCI -23
ONEFOUR          N/A      3   0  85 NW9         N/A  WCI -11
$$

REGIONAL REPORTS...SASKATCHEWAN

CITY           SKY/WX    TMP DP  RH WIND       PRES   REMARKS
SWIFT CURRENT  FLURRIES   1  -2  85 SE14      29.84F WCI -17
REGINA         CLOUDY    -8 -18  59 E14       30.01F WCI -28
SASKATOON      CLEAR     -4  -9  77 SE10      30.08F WCI -21
VAL MARIE        N/A      1  -4  78 E7          N/A  WCI -11
ROCKGLEN         N/A     -2  -4  92 SE6         N/A  WCI -14
$$



USA.gov is the U.S. government's official web portal to all federal, state and local government web resources and services.